This is the latest recevied weather packets stored in our database for station/object KC3ELT-10. If no packets are shown the sender has not sent any weather packets the latest 10 day(s).
| Time | Temp. | Humidity | Pressure | Rain* | Wind** | Luminosity | Snow |
|---|---|---|---|---|---|---|---|
| 1777435378 | 11.11° C | 70% | 1012.2 hPa | 0 mm | 0.89 m/s, 155° | - | - |
| 1777435078 | 11.11° C | 70% | 1012.1 hPa | 0 mm | 1.34 m/s, 181° | - | - |
| 1777434779 | 11.11° C | 69% | 1012.1 hPa | 0 mm | 0.45 m/s, 187° | - | - |
| 1777434478 | 11.11° C | 69% | 1012.1 hPa | 0 mm | 0.45 m/s, 196° | - | - |
| 1777434178 | 11.11° C | 69% | 1012 hPa | 0 mm | 0.89 m/s, 214° | - | - |
| 1777433879 | 11.11° C | 69% | 1012 hPa | 0 mm | 0.45 m/s, 209° | - | - |
| 1777433579 | 11.11° C | 68% | 1012 hPa | 0 mm | 0.45 m/s, 200° | - | - |
| 1777433278 | 11.11° C | 68% | 1012.3 hPa | 0 mm | 0 m/s | - | - |
| 1777432979 | 11.11° C | 68% | 1012.3 hPa | 0 mm | 0.89 m/s, 195° | - | - |
| 1777432678 | 11.67° C | 68% | 1012.3 hPa | 0 mm | 0.89 m/s, 196° | - | - |
| 1777432378 | 11.67° C | 67% | 1012 hPa | 0 mm | 0.45 m/s, 214° | - | - |
| 1777432079 | 11.67° C | 67% | 1012 hPa | 0 mm | 0.89 m/s, 180° | - | - |
| 1777431779 | 11.67° C | 67% | 1012 hPa | 0 mm | 0 m/s | - | - |
| 1777431478 | 11.67° C | 67% | 1011.8 hPa | 0 mm | 0.45 m/s, 204° | - | - |
| 1777431178 | 11.67° C | 66% | 1011.8 hPa | 0 mm | 0 m/s | - | - |
| 1777430879 | 11.67° C | 66% | 1011.8 hPa | 0 mm | 1.34 m/s, 193° | - | - |
| 1777430578 | 11.67° C | 66% | 1012.1 hPa | 0 mm | 0 m/s | - | - |
| 1777430279 | 11.67° C | 67% | 1012.1 hPa | 0 mm | 0.89 m/s, 207° | - | - |
| 1777429979 | 11.67° C | 67% | 1012.1 hPa | 0 mm | 0.45 m/s, 170° | - | - |
| 1777429678 | 11.67° C | 67% | 1011.6 hPa | 0 mm | 0.45 m/s, 179° | - | - |
| 1777429378 | 11.67° C | 67% | 1011.6 hPa | 0 mm | 0 m/s | - | - |
| 1777429078 | 11.67° C | 66% | 1011.6 hPa | 0 mm | 0.45 m/s, 173° | - | - |
| 1777428778 | 11.67° C | 67% | 1011.2 hPa | 0 mm | 0 m/s | - | - |
| 1777428478 | 11.67° C | 66% | 1011.2 hPa | 0 mm | 0 m/s | - | - |
| 1777428178 | 11.67° C | 66% | 1011.2 hPa | 0 mm | 0 m/s | - | - |
* Rain latest hour (hover to see other rain measurements)
** Current wind speed in m/s (hover to see current wind gust speed)